Regional Weather Roundup
Issued by NWS Sioux Falls, SD

Home | Current Version | Previous Version | Graphics & Text | Print | Product List | Glossary On
Versions: 1 2 3 4 5 6 7 8 9 10 11 12 13 14 15 16 17 18 19 20 21 22 23 24 25 26 27 28 29 30 31 32 33 34 35 36 37 38 39 40 41 42 43 44 45 46 47 48 49 50
612
ASUS43 KFSD 271502
RWRFSD

WEATHER ROUNDUP FOR SE SOUTH DAKOTA/SW MINNESOTA/NW IOWA
NATIONAL WEATHER SERVICE SIOUX FALLS SD
1000 AM CDT THU JUL 27 2017

NOTE: "FAIR" INDICATES FEW OR NO CLOUDS BELOW 12,000 FEET WITH NO
SIGNIFICANT WEATHER AND OR OBSTRUCTIONS TO VISIBILITY.


SDZ038>040-050-052>070-271600-
SOUTHEAST SOUTH DAKOTA

CITY           SKY/WX    TMP DP  RH WIND       PRES   REMARKS
BROOKINGS      SUNNY     72  63  73 NE5       30.15S
CHAMBERLAIN    SUNNY     76  64  67 S6        30.15S
HURON          SUNNY     74  64  71 E3        30.14F
MADISON        FAIR      72  68  88 NE7       30.15F
MITCHELL       SUNNY     75  64  68 CALM      30.14S
SIOUX FALLS    MOSUNNY   76  66  71 NE5       30.12F
WINNER         FAIR      79  60  52 VRB6      30.16S
YANKTON        SUNNY     75  64  68 N7        30.13R
$$

MNZ071-072-080-081-089-090-097-098-271600-
SOUTHWEST MINNESOTA

CITY           SKY/WX    TMP DP  RH WIND       PRES   REMARKS
FAIRMONT       SUNNY     75  65  70 N3        30.10R
JACKSON        SUNNY     72  63  73 CALM      30.12S
LUVERNE        SUNNY     72  61  68 NE5       30.13S
MARSHALL       SUNNY     71  64  78 N3        30.13S
MONTEVIDEO     SUNNY     81  64  57 CALM      30.13S
PIPESTONE      SUNNY     73  63  68 SE3       30.14S
REDWOOD FALLS  SUNNY     76  62  62 VRB3      30.11S
TRACY          SUNNY     72  65  79 N3        30.14R
WINDOM         SUNNY     73  63  68 N6        30.12S
WORTHINGTON    SUNNY     73  63  70 NE7       30.14R
$$

IAZ001>003-012>014-020>022-031-032-NEZ013-014-SDZ071-271600-
NORTHWEST IOWA

CITY           SKY/WX    TMP DP  RH WIND       PRES   REMARKS
CHEROKEE       SUNNY     74  67  78 N5        30.09F
DENISON        SUNNY     73  66  78 NE7       30.09S
ESTHERVILLE    SUNNY     74  66  76 N6        30.10R
ORANGE CITY    SUNNY     73  66  78 N5        30.11S
SHELDON        SUNNY     75  66  73 NE5       30.10S
SIOUX CITY     SUNNY     77  65  66 E6        30.09S
SPENCER        SUNNY     77  64  64 NE8       30.10S
STORM LAKE     SUNNY     73  64  73 NE8       30.10S
$$

ABBREVIATIONS USED IN REMARKS
   TC - TEMPERATURE IN CELSIUS
  WCI - WIND CHILL INDEX
   HX - HEAT INDEX
  VSB - VISIBILITY





USA.gov is the U.S. government's official web portal to all federal, state and local government web resources and services.